| time (UTC) | temp C | wind direction | speed KPH | gust KPH | rain 1hr cm | rain 24hr cm | rain mn cm | humidity % | barometer mb |
| 20260903193036 | 16 | 264 | 1.6 | 12.9 | 0.00 | 0.00 | 0.00 | ||
| 20260903183041 | 15 | 205 | 3.2 | 8.0 | 0.00 | 0.00 | 0.00 | ||
| 20260903173054 | 14 | 83 | 1.6 | 6.4 | 0.00 | 0.00 | 0.00 | ||
| 20260903170106 | 13 | 64 | 3.2 | 9.7 | 0.00 | 0.00 | 0.00 | ||
| 20260903163038 | 13 | 45 | 3.2 | 8.0 | 0.00 | 0.00 | 0.00 | ||
| 20260903153055 | 12 | 52 | 3.2 | 9.7 | 0.00 | 0.00 | 0.00 | ||
| 20260903143104 | 12 | 58 | 0.0 | 3.2 | 0.00 | 0.00 | 0.00 | ||
| 20260903140113 | 12 | 58 | 0.0 | 1.6 | 0.00 | 0.00 | 0.00 | ||
| 20260903133047 | 12 | 73 | 0.0 | 3.2 | 0.00 | 0.00 | 0.00 | ||
| 20260903130120 | 12 | 63 | 4.8 | 6.4 | 0.00 | 0.00 | 0.00 | ||
| 20260903120122 | 12 | 76 | 3.2 | 4.8 | 0.00 | 0.00 | 0.00 | ||
| 20260903113044 | 12 | 80 | 3.2 | 6.4 | 0.00 | 0.00 | 0.00 | ||
| 20260903110109 | 12 | 101 | 1.6 | 6.4 | 0.00 | 0.00 | 0.00 | ||
| 20260903100107 | 12 | 269 | 0.0 | 3.2 | 0.00 | 0.00 | 0.00 | ||
| 20260903083025 | 13 | 87 | 0.0 | 3.2 | 0.00 | 0.00 | 0.00 | ||
| 20260903080100 | 13 | 258 | 0.0 | 3.2 | 0.00 | 0.00 | 0.00 | ||
| 20260903073050 | 13 | 167 | 0.0 | 1.6 | 0.00 | 0.00 | 0.00 | ||
| 20260903070109 | 13 | 268 | 0.0 | 3.2 | 0.00 | 0.00 | 0.00 | ||
| 20260903063040 | 13 | 24 | 0.0 | 1.6 | 0.00 | 0.00 | 0.00 | ||
| 20260903060109 | 13 | 70 | 3.2 | 6.4 | 0.00 | 0.00 | 0.00 | ||
| 20260903053029 | 13 | 232 | 0.0 | 1.6 | 0.00 | 0.00 | 0.00 | ||
| 20260903050108 | 13 | 81 | 0.0 | 1.6 | 0.00 | 0.00 | 0.00 | ||
| 20260903043033 | 14 | 237 | 0.0 | 1.6 | 0.00 | 0.00 | 0.00 | ||
| 20260903040112 | 14 | 208 | 0.0 | 3.2 | 0.00 | 0.00 | 0.00 | ||
| 20260903033047 | 15 | 200 | 0.0 | 4.8 | 0.00 | 0.00 | 0.00 | ||
| 20260903030106 | 14 | 216 | 0.0 | 4.8 | 0.00 | 0.00 | 0.00 | ||
| 20260903023058 | 15 | 205 | 1.6 | 9.7 | 0.00 | 0.00 | 0.00 | ||
| 20260903020100 | 15 | 215 | 4.8 | 20.9 | 0.00 | 0.00 | 0.00 | ||
| 20260903013056 | 16 | 348 | 1.6 | 12.9 | 0.00 | 0.00 | 0.00 | ||
| 20260903010059 | 16 | 241 | 6.4 | 12.9 | 0.00 | 0.00 | 0.00 | ||
| 20260903003053 | 16 | 260 | 1.6 | 19.3 | 0.00 | 0.00 | 0.00 | ||
| 20260902233045 | 17 | 282 | 6.4 | 12.9 | 0.00 | 0.00 | 0.00 | ||
| 20260902230113 | 15 | 179 | 4.8 | 16.1 | 0.00 | 0.00 | 0.00 | ||
| 20260902223045 | 15 | 249 | 4.8 | 27.4 | 0.00 | 0.00 | 0.00 | ||
| 20260902220054 | 15 | 15 | 4.8 | 12.9 | 0.00 | 0.00 | 0.00 | ||
| 20260902213032 | 14 | 78 | 6.4 | 14.5 | 0.00 | 0.00 | 0.00 | ||
| 20260902210055 | 14 | 63 | 4.8 | 16.1 | 0.00 | 0.00 | 0.00 | ||
| 20260902203037 | 14 | 44 | 6.4 | 14.5 | 0.00 | 0.00 | 0.00 | ||
| 20260902200106 | 15 | 79 | 3.2 | 12.9 | 0.00 | 0.00 | 0.00 |